THORAD AGENA D DEB, 4977

Orbit data source: Space-Track

THORAD AGENA D DEB, 4977 is space debris in SSO originally from a launch on Wed, 08 Apr 1970 UTC launched from the Air Force Western Test Range (AFWTR). Debris objects in space refer to the collection of defunct objects orbiting the Earth. Examples of debris include non-operational satellites, rocket bodies, and fragments generated from explosions, collisions, or faulty payload assembly.

Loading next visibility...
Identifier
4977, 1970-025GX
Orbit
SSO
Country
Flag of USUS
Related business
Manufacturer
Unknown
Mission
Spacecraft
Bus & Motor
Unknown
Mass
Unknown
Launch date (UTC)
1970-04-08 (56 years ago)
Launch vehicle
Unknown
Launch site
Air Force Western Test Range (AFWTR)
Object type
Payload
Rocket body
Debris
Shape & HBR
Unknown shape, 0.1 m
Radar Cross Section
Small (<0.1 m²)

Expand to show TLE details & history
Last TLE update: 15 hours ago

TLE from 15 hours ago
0 THORAD AGENA D DEB
1 04977U 70025GX  25300.88204441  .00000098  00000-0  21924-3 0  9990
2 04977 100.1177  73.4981 0020693 108.2637  22.3804 13.52413269738570
Epoch: 2025-10-27T21:10Z
TLE epoch observation values (Epoch: 2025-10-27T21:10:08.637Z)
Latitude
48.33788°
Longitude
-89.00669°
Altitude
1,056.611 km
Speed
7.335 km/s
True Right ascension
17h 40m 01s
True Declination
48° 10' 26"
Sunlit
Object was in daylight at epoch
Visualization orbit readout
Latitude
Unknown
Longitude
Unknown
Altitude
Unknown
Speed
Unknown
Apparent Right ascension
Unknown
Apparent Declination
Unknown
Sunlit
N/A
Visualization observer readout
Local Sidereal Time
08:00:22
Azimuth
Unknown
Elevation
Unknown
Doppler factor
Unknown
Orbital elements
Apogee altitude
1,076.106 km
Perigee altitude
1,045.32 km
Semi-major axis
7,438.85 km
Eccentricity
0.00207
Inclination
100.1177°
RAAN
73.4981°
Arg. of periapsis
108.2637°
True anomaly
22.4709°
Mean anomaly
22.3804°
Eccentric anomaly
22.42563°
Mean motion
3.38286 °/min
Orbital period
106.42 mins
BSTAR
0.00021924
Loading maneuver chart data...
Computing Atmospheric mass density...

Documentation

Showing up to 5 results
|